This is the latest recevied weather packets stored in our database for station/object N9CQL. If no packets are shown the sender has not sent any weather packets the latest 10 day(s).
| Time | Temp. | Humidity | Pressure | Rain* | Wind** | Luminosity | Snow |
|---|---|---|---|---|---|---|---|
| 1778011114 | 13.33° C | 38% | 1008 hPa | 0 mm | - | 121 W/m² | - |
| 1778010811 | 13.33° C | 38% | 1007.8 hPa | 0 mm | - | 127 W/m² | - |
| 1778010508 | 13.33° C | 39% | 1007.9 hPa | 0 mm | - | 142 W/m² | - |
| 1778010206 | 13.89° C | 39% | 1008 hPa | 0 mm | - | 163 W/m² | - |
| 1778009901 | 13.89° C | 39% | 1007.9 hPa | 0 mm | - | 175 W/m² | - |
| 1778009599 | 13.89° C | 39% | 1008.1 hPa | 0 mm | - | 189 W/m² | - |
| 1778009297 | 13.89° C | 40% | 1007.9 hPa | 0 mm | - | 203 W/m² | - |
| 1778008995 | 13.89° C | 41% | 1008.1 hPa | 0 mm | - | 217 W/m² | - |
| 1778008692 | 14.44° C | 41% | 1008.1 hPa | 0 mm | - | 220 W/m² | - |
| 1778008390 | 13.89° C | 39% | 1008 hPa | 0 mm | - | 224 W/m² | - |
| 1778008087 | 13.89° C | 43% | 1008.2 hPa | 0 mm | - | 202 W/m² | - |
| 1778007782 | 13.89° C | 40% | 1008 hPa | 0 mm | - | 202 W/m² | - |
| 1778007478 | 14.44° C | 42% | 1008.1 hPa | 0 mm | - | 203 W/m² | - |
| 1778007175 | 13.89° C | 39% | 1008 hPa | 0 mm | - | 214 W/m² | - |
| 1778006871 | 14.44° C | 41% | 1008.1 hPa | 0 mm | - | 228 W/m² | - |
| 1778006568 | 14.44° C | 39% | 1007.9 hPa | 0 mm | - | 238 W/m² | - |
| 1778006265 | 15° C | 39% | 1008.3 hPa | 0 mm | - | 242 W/m² | - |
| 1778005962 | 14.44° C | 38% | 1008.2 hPa | 0 mm | - | 256 W/m² | - |
| 1778005659 | 13.89° C | 38% | 1008 hPa | 0 mm | - | 270 W/m² | - |
| 1778005355 | 14.44° C | 36% | 1008 hPa | 0 mm | - | 287 W/m² | - |
| 1778005052 | 15° C | 38% | 1008.1 hPa | 0 mm | - | 293 W/m² | - |
| 1778004750 | 14.44° C | 39% | 1008.1 hPa | 0 mm | - | 337 W/m² | - |
| 1778004446 | 15° C | 40% | 1008 hPa | 0 mm | - | 354 W/m² | - |
| 1778004143 | 14.44° C | 43% | 1007.9 hPa | 0 mm | - | 352 W/m² | - |
| 1778003839 | 14.44° C | 40% | 1007.8 hPa | 0 mm | - | 389 W/m² | - |
* Rain latest hour (hover to see other rain measurements)
** Current wind speed in m/s (hover to see current wind gust speed)